Newport, RI

4:15 PM EDT on August 21, 2017 (GMT -0400)
Newport State

Weather History for KUUU - February, 2013

Change the Weather History Date:

Sunday, February 24, 2013

  Actual Average Record
Temperature  
Mean Temperature 36 °F -  
Max Temperature 39 °F 42 °F 59 °F (2017)
Min Temperature 32 °F 28 °F 1 °F (2015)
Degree Days  
Heating Degree Days 30    
Moisture  
Dew Point 34 °F    
Average Humidity 94    
Maximum Humidity 100    
Minimum Humidity 87    
Precipitation  
Precipitation 0.23 in - - ()
Sea Level Pressure  
Sea Level Pressure 29.72 in    
Wind  
Wind Speed 12 mph (North)    
Max Wind Speed 17 mph    
Max Gust Speed 26 mph    
Visibility 4 miles    
Events Rain , Snow    
Averages and records for this station are not official NWS values.
T = Trace of Precipitation, MM = Missing Value Source: NWS Daily Summary

Daily Weather History Graph

Daily Weather History Graph

Search for Another Location

Airport or City:

Trip Planner

Search our weather history database for the weather conditions in past years. The results will help you decide how hot, cold, wet, or windy it might be!

Date:

Astronomy

Feb. 24, 2013 Rise Set
Actual Time 6:27 AM EST 5:30 PM EST
Civil Twilight 5:59 AM EST 5:58 PM EST
Nautical Twilight 5:27 AM EST 6:30 PM EST
Astronomical Twilight 4:54 AM EST 7:02 PM EST
Moon 4:38 PM EST (2/24) 5:22 AM EST (2/24)
Length of Visible Light 11h 58m
Length of Day
11h 02m
Waxing Gibbous, 99% of the Moon is Illuminated
Feb 24
Waxing Gibbous
Feb 25
Full
Mar 4
Last Quarter
Mar 11
New
Mar 19
First Quarter

Hourly Weather History & Observations

Time (EST) Temp. Windchill Dew Point Humidity Pressure Visibility Wind Dir Wind Speed Gust Speed Precip Events Conditions
12:53 AM 36.0 °F 28.5 °F 34.0 °F 93% 29.80 in 3.0 mi NE 10.4 mph - 0.01 in Rain Rain
1:30 AM 35.6 °F 27.5 °F 35.6 °F 100% 29.77 in 1.5 mi NNE 11.5 mph - 0.07 in Rain Rain
1:37 AM 35.6 °F 27.1 °F 35.6 °F 100% 29.77 in 1.5 mi North 12.7 mph - 0.08 in Rain Rain
1:53 AM 37.0 °F 28.9 °F 35.1 °F 93% 29.75 in 1.8 mi North 12.7 mph - 0.10 in Rain Rain
1:57 AM 37.4 °F 29.3 °F 35.6 °F 93% 29.76 in 2.0 mi North 12.7 mph - 0.00 in Rain Light Rain
2:06 AM 37.4 °F 29.8 °F 35.6 °F 93% 29.75 in 7.0 mi North 11.5 mph - 0.00 in Rain Light Rain
2:53 AM 37.0 °F 28.9 °F 36.0 °F 96% 29.73 in 2.5 mi North 12.7 mph - 0.00 in Rain Light Rain
3:06 AM 37.4 °F 29.3 °F 35.6 °F 93% 29.71 in 1.8 mi North 12.7 mph - 0.00 in Snow Light Snow
3:14 AM 37.4 °F 29.3 °F 35.6 °F 93% 29.70 in 3.0 mi North 12.7 mph - 0.00 in Rain Light Rain
3:53 AM 37.9 °F 31.5 °F 37.0 °F 97% 29.70 in 5.0 mi North 9.2 mph - 0.00 in Rain Light Rain
4:53 AM 37.9 °F 31.5 °F 37.0 °F 97% 29.68 in 4.0 mi NNE 9.2 mph - 0.04 in Rain Light Rain
5:45 AM 37.4 °F 30.8 °F 37.4 °F 100% 29.71 in 3.0 mi North 9.2 mph - 0.01 in Rain Light Rain
5:53 AM 37.9 °F 30.9 °F 37.0 °F 97% 29.71 in 3.0 mi North 10.4 mph - 0.01 in Rain Light Rain
6:53 AM 37.9 °F 32.7 °F 37.0 °F 97% 29.69 in 5.0 mi North 6.9 mph - 0.01 in Rain Light Rain
7:23 AM 37.4 °F 29.3 °F 37.4 °F 100% 29.67 in 1.8 mi North 12.7 mph - N/A   Overcast
7:53 AM 39.0 °F 31.0 °F 37.9 °F 96% 29.66 in 1.2 mi North 13.8 mph 23.0 mph 0.00 in Rain Light Rain
8:53 AM 39.0 °F 30.6 °F 37.9 °F 96% 29.65 in 1.0 mi North 15.0 mph - 0.00 in Rain Light Rain
9:38 AM 39.2 °F 31.6 °F 37.4 °F 93% 29.63 in 2.0 mi North 12.7 mph - 0.00 in Rain Light Rain
9:53 AM 39.0 °F 32.3 °F 37.9 °F 96% 29.63 in 2.0 mi North 10.4 mph 19.6 mph 0.00 in   Overcast
10:08 AM 39.2 °F 30.8 °F 37.4 °F 93% 29.63 in 1.8 mi North 15.0 mph - 0.00 in Rain Light Rain
10:53 AM 37.0 °F 28.9 °F 36.0 °F 96% 29.64 in 1.5 mi NNW 12.7 mph - 0.00 in Snow Light Snow
11:12 AM 37.4 °F 28.5 °F 35.6 °F 93% 29.64 in 2.0 mi NNW 15.0 mph 21.9 mph 0.00 in Snow Light Snow
11:36 AM 37.4 °F 28.2 °F 35.6 °F 93% 29.65 in 1.8 mi NNW 16.1 mph 23.0 mph 0.04 in Rain Rain
11:43 AM 37.4 °F 28.2 °F 35.6 °F 93% 29.65 in 2.5 mi NNW 16.1 mph 23.0 mph 0.04 in Rain Rain
11:51 AM 37.4 °F 28.5 °F 35.6 °F 93% 29.65 in 5.0 mi NNW 15.0 mph 23.0 mph 0.04 in Rain Light Rain
11:53 AM 37.0 °F 27.7 °F 35.1 °F 93% 29.65 in 6.0 mi NNW 16.1 mph 23.0 mph 0.04 in Rain Light Rain
12:02 PM 35.6 °F 25.9 °F 35.6 °F 100% 29.64 in 8.0 mi North 16.1 mph 24.2 mph 0.00 in Rain Light Rain
12:10 PM 35.6 °F 25.5 °F 33.8 °F 93% 29.63 in 3.0 mi North 17.3 mph 24.2 mph 0.02 in Rain Rain
12:33 PM 35.6 °F 25.9 °F 33.8 °F 93% 29.63 in 10.0 mi NNW 16.1 mph 23.0 mph 0.02 in   Overcast
12:53 PM 36.0 °F 26.3 °F 35.1 °F 97% 29.62 in 10.0 mi NNW 16.1 mph 24.2 mph 0.02 in   Overcast
1:53 PM 36.0 °F 27.1 °F 33.1 °F 89% 29.62 in 10.0 mi North 13.8 mph 24.2 mph N/A   Overcast
2:53 PM 36.0 °F 26.0 °F 33.1 °F 89% 29.65 in 10.0 mi NNW 17.3 mph 26.5 mph N/A   Overcast
3:08 PM 35.6 °F 26.2 °F 33.8 °F 93% 29.66 in 10.0 mi North 15.0 mph 21.9 mph N/A   Overcast
3:53 PM 36.0 °F 28.5 °F 33.1 °F 89% 29.67 in 10.0 mi North 10.4 mph 21.9 mph 0.00 in Rain Light Rain
4:49 PM 33.8 °F 27.0 °F 32.0 °F 93% 29.70 in 10.0 mi NNW 8.1 mph 17.3 mph 0.00 in   Overcast
4:53 PM 34.0 °F 25.0 °F 32.0 °F 92% 29.70 in 10.0 mi NNW 12.7 mph 16.1 mph 0.00 in   Overcast
5:28 PM 33.8 °F 25.3 °F 30.2 °F 87% 29.71 in 10.0 mi North 11.5 mph 19.6 mph N/A   Overcast
5:53 PM 34.0 °F 26.0 °F 30.9 °F 89% 29.73 in 10.0 mi NNW 10.4 mph 23.0 mph N/A   Overcast
6:53 PM 34.0 °F 25.5 °F 30.9 °F 89% 29.77 in 10.0 mi NNW 11.5 mph 20.7 mph N/A   Overcast
7:53 PM 33.1 °F 24.9 °F 30.9 °F 92% 29.79 in 5.0 mi NNW 10.4 mph - 0.00 in   Overcast
8:28 PM 33.8 °F 25.3 °F 30.2 °F 87% 29.81 in 2.0 mi NNW 11.5 mph 16.1 mph 0.00 in Snow Light Snow
8:34 PM 32.0 °F 22.1 °F 30.2 °F 93% 29.81 in 1.8 mi NNW 13.8 mph 20.7 mph 0.00 in Snow Light Snow
8:53 PM 32.0 °F 23.6 °F 30.9 °F 96% 29.82 in 1.8 mi NNW 10.4 mph - 0.00 in Snow Light Snow
9:07 PM 32.0 °F 23.6 °F 30.2 °F 93% 29.82 in 2.0 mi NNW 10.4 mph - 0.00 in Snow Light Snow
9:29 PM 32.0 °F 23.0 °F 30.2 °F 93% 29.84 in 1.8 mi NNW 11.5 mph - 0.00 in Snow Light Snow
9:53 PM 32.0 °F 24.2 °F 30.0 °F 92% 29.84 in 1.5 mi NNW 9.2 mph 18.4 mph 0.00 in Snow Light Snow
10:28 PM 32.0 °F 23.6 °F 30.2 °F 93% 29.85 in 2.5 mi NNW 10.4 mph - 0.00 in Snow Light Snow
10:36 PM 32.0 °F 23.0 °F 30.2 °F 93% 29.85 in 3.0 mi NNW 11.5 mph - 0.00 in Snow Light Snow
10:53 PM 32.0 °F 23.6 °F 30.0 °F 92% 29.85 in 4.0 mi NNW 10.4 mph - 0.00 in Snow Light Snow
11:11 PM 32.0 °F 24.2 °F 30.2 °F 93% 29.85 in 2.5 mi NNW 9.2 mph - 0.00 in Snow Light Snow
11:53 PM 32.0 °F 23.6 °F 30.0 °F 92% 29.87 in 3.0 mi NNW 10.4 mph - 0.00 in Snow Light Snow